Weather History for Sitka, AK

Change the Weather History Date:

Sunday, October 10, 2010

  Actual Average Record
Temperature  
Mean Temperature 48 °F -  
Max Temperature 50 °F 52 °F 61 °F (1980)
Min Temperature 45 °F 43 °F 30 °F (1997)
Degree Days  
Heating Degree Days 17    
Moisture  
Dew Point 44 °F    
Average Humidity 90    
Maximum Humidity 100    
Minimum Humidity 79    
Precipitation  
Precipitation 1.39 in - - ()
Sea Level Pressure  
Sea Level Pressure 29.47 in    
Wind  
Wind Speed 6 mph (SSE)    
Max Wind Speed 14 mph    
Max Gust Speed -    
Visibility 8 miles    
Events Rain    
Averages and records for this station are not official NWS values.
T = Trace of Precipitation, MM = Missing Value Source: NWS Daily Summary

Daily Weather History Graph

Daily Weather History Graph

Search for Another Location

Airport:

Trip Planner

Search our weather history database for the weather conditions in past years. The results will help you decide how hot, cold, wet, or windy it might be!

Date:

Astronomy

Oct. 10, 2010 Rise Set
Actual Time 7:24 AM AKDT 6:11 PM AKDT
Civil Twilight 6:45 AM AKDT 6:49 PM AKDT
Nautical Twilight 6:01 AM AKDT 7:33 PM AKDT
Astronomical Twilight 5:16 AM AKDT 8:18 PM AKDT
Moon 12:10 PM AKDT (10/10) 6:53 PM AKDT (10/10)
Length of Visible Light 12h 03m
Length of Day
10h 47m
Waxing Crescent, 12% of the Moon is Illuminated
Oct 10
Waxing Crescent
Oct 14
First Quarter
Oct 22
Full
Oct 30
Last Quarter
Nov 5
New

Hourly Weather History & Observations

Time (AKDT) Temp. Windchill Dew Point Humidity Pressure Visibility Wind Dir Wind Speed Gust Speed Precip Events Conditions
12:53 AM 46.9 °F - 45.0 °F 93% 28.95 in 5.0 mi Calm Calm - 0.18 in Rain Rain
1:14 AM 46.4 °F - 46.4 °F 100% 28.95 in 2.5 mi Calm Calm - 0.10 in Rain Heavy Rain
1:53 AM 46.9 °F - 45.0 °F 93% 28.97 in 3.0 mi North 6.9 mph - 0.29 in Rain Rain
2:12 AM 46.4 °F 42.4 °F 44.6 °F 93% 28.98 in 5.0 mi NNW 8.1 mph - 0.05 in Rain Rain
2:53 AM 46.0 °F 41.0 °F 44.1 °F 93% 29.00 in 7.0 mi NNW 10.4 mph - 0.14 in Rain Rain
3:53 AM 46.9 °F - 42.1 °F 83% 29.04 in 10.0 mi Calm Calm - 0.05 in Rain Light Rain
4:53 AM 46.0 °F 43.9 °F 44.1 °F 93% 29.10 in 8.0 mi East 4.6 mph - 0.02 in Rain Light Rain
5:04 AM 46.4 °F 43.5 °F 44.6 °F 93% 29.11 in 8.0 mi East 5.8 mph - 0.01 in Rain Light Rain
5:15 AM 46.4 °F 45.2 °F 44.6 °F 93% 29.12 in 8.0 mi East 3.5 mph - 0.02 in Rain Light Rain
5:53 AM 46.9 °F - 45.0 °F 93% 29.17 in 8.0 mi SSW 6.9 mph - 0.04 in Rain Light Rain
6:05 AM 46.4 °F 41.9 °F 44.6 °F 93% 29.18 in 7.0 mi SSW 9.2 mph - 0.01 in Rain Light Rain
6:12 AM 46.4 °F 41.9 °F 44.6 °F 93% 29.19 in 9.0 mi SSW 9.2 mph - 0.02 in Rain Light Rain
6:48 AM 46.4 °F 41.5 °F 44.6 °F 93% 29.23 in 8.0 mi WSW 10.4 mph - 0.06 in Rain Light Rain
6:53 AM 46.9 °F - 45.0 °F 93% 29.24 in 7.0 mi WSW 9.2 mph - 0.06 in Rain Light Rain
7:53 AM 46.9 °F - 43.0 °F 86% 29.34 in 8.0 mi West 12.7 mph - 0.06 in Rain Light Rain
8:53 AM 46.9 °F - 43.0 °F 86% 29.42 in 9.0 mi SSE 4.6 mph - 0.07 in Rain Light Rain
9:10 AM 46.4 °F 43.5 °F 42.8 °F 87% 29.43 in 5.0 mi SE 5.8 mph - 0.02 in Rain Rain
9:19 AM 46.4 °F 44.3 °F 44.6 °F 93% 29.44 in 9.0 mi ESE 4.6 mph - 0.02 in Rain Light Rain
9:29 AM 46.4 °F 43.5 °F 44.6 °F 93% 29.45 in 9.0 mi East 5.8 mph - 0.03 in Rain Light Rain
9:38 AM 46.4 °F 42.9 °F 44.6 °F 93% 29.46 in 9.0 mi East 6.9 mph - 0.04 in Rain Light Rain
9:53 AM 46.0 °F 42.5 °F 43.0 °F 89% 29.47 in 10.0 mi ESE 6.9 mph - 0.04 in Rain Light Rain
10:26 AM 46.4 °F 42.9 °F 42.8 °F 87% 29.51 in 10.0 mi ESE 6.9 mph - 0.00 in Rain Light Rain
10:53 AM 46.9 °F - 43.0 °F 86% 29.54 in 4.0 mi Variable 4.6 mph - 0.04 in Rain Rain
11:53 AM 48.0 °F - 45.0 °F 89% 29.58 in 7.0 mi South 10.4 mph - 0.10 in Rain Light Rain
12:42 PM 48.2 °F - 44.6 °F 87% 29.61 in 10.0 mi South 9.2 mph - 0.01 in   Overcast
12:50 PM 48.2 °F - 44.6 °F 87% 29.62 in 10.0 mi South 11.5 mph - 0.01 in   Overcast
12:53 PM 48.0 °F - 45.0 °F 89% 29.62 in 9.0 mi South 12.7 mph - 0.01 in Rain Light Rain
2:53 PM 50.0 °F - 45.0 °F 83% 29.68 in 10.0 mi SSW 11.5 mph - N/A   Overcast
3:53 PM 48.0 °F - 46.0 °F 93% 29.71 in 5.0 mi SSE 10.4 mph - 0.02 in Rain Light Rain
4:14 PM 48.2 °F - 44.6 °F 87% 29.72 in 10.0 mi SSE 9.2 mph - 0.01 in Rain Light Rain
4:23 PM 48.2 °F - 44.6 °F 87% 29.72 in 7.0 mi SSE 10.4 mph - 0.02 in Rain Light Rain
4:36 PM 48.2 °F - 44.6 °F 87% 29.72 in 8.0 mi SSE 10.4 mph - 0.03 in Rain Light Rain
4:53 PM 48.0 °F - 45.0 °F 89% 29.73 in 10.0 mi SSE 10.4 mph - 0.03 in Rain Light Rain
5:53 PM 46.9 °F - 43.0 °F 86% 29.75 in 5.0 mi SW 9.2 mph - 0.13 in Rain Heavy Rain
6:13 PM 48.2 °F - 46.4 °F 93% 29.75 in 10.0 mi SW 13.8 mph - 0.00 in   Overcast
6:53 PM 48.0 °F - 44.1 °F 86% 29.77 in 10.0 mi SSW 6.9 mph - 0.00 in   Overcast
7:53 PM 46.9 °F - 44.1 °F 90% 29.78 in 10.0 mi East 5.8 mph - 0.00 in   Overcast
8:05 PM 46.4 °F - 44.6 °F 93% 29.78 in 2.5 mi Calm Calm - 0.07 in Rain Heavy Rain
8:10 PM 46.4 °F - 44.6 °F 93% 29.78 in 3.0 mi Calm Calm - 0.08 in Rain Heavy Rain
8:34 PM 46.4 °F 41.9 °F 44.6 °F 93% 29.79 in 10.0 mi SE 9.2 mph - 0.08 in Rain Light Rain
8:53 PM 46.9 °F - 43.0 °F 86% 29.80 in 10.0 mi ESE 5.8 mph - 0.08 in   Overcast
9:53 PM 46.9 °F - 42.1 °F 83% 29.81 in 10.0 mi ESE 5.8 mph - 0.01 in   Overcast
10:53 PM 46.0 °F 40.2 °F 39.9 °F 79% 29.83 in 7.0 mi ESE 12.7 mph - 0.02 in Rain Rain
11:53 PM 45.0 °F 41.2 °F 41.0 °F 86% 29.83 in 10.0 mi East 6.9 mph - 0.00 in   Overcast